Location: Observatoire du C�gep de Trois-Rivi�res � Champlain
(46.4753°N, 72.3231°W)
Time: 12:40:17
(UTC-04:00)

Envisat - Visible Passes

Search period start: 20 August 2018 00:00
Search period end: 30 August 2018 00:00
Orbit: 764 x 766 km, 98.2° (Epoch: 20 August)

Date Brightness Start Highest point End Pass type
(mag) Time Alt. Az. Time Alt. Az. Time Alt. Az.
20 Aug 4.1 20:19:49 10° S 20:24:43 48° W 20:29:39 10° NNW visible
21 Aug 5.8 21:25:01 10° WSW 21:27:35 14° W 21:30:09 10° WNW visible
22 Aug 5.0 20:46:04 10° SSW 20:50:26 29° W 20:54:51 10° NW visible
23 Aug 3.7 20:08:30 10° S 20:13:30 60° W 20:18:33 10° NNW visible
24 Aug 5.7 21:12:57 10° SW 21:16:16 17° W 21:19:36 10° NW visible
25 Aug 4.6 20:34:33 10° SSW 20:39:11 36° W 20:43:52 10° NNW visible
27 Aug 5.5 21:01:08 10° SW 21:04:58 21° W 21:08:50 10° NW visible
28 Aug 4.2 20:23:07 10° S 20:27:57 44° W 20:32:50 10° NNW visible
29 Aug 5.9 21:28:44 10° WSW 21:30:52 13° W 21:33:01 10° WNW visible
